Regional Weather Roundup
Issued by NWS

Home | Current Version | Previous Version | Text Only | Print | Product List | Glossary On
Versions: 1 2 3 4 5 6 7 8 9 10 11 12 13 14 15 16 17 18 19 20 21 22 23 24 25 26 27 28 29 30 31 32 33 34 35 36 37 38 39 40 41 42 43 44 45 46 47 48 49 50
000
ASUS42 KFFC 100210
RWRGA
WEATHER ROUNDUP FOR GEORGIA
NATIONAL WEATHER SERVICE PEACHTREE CITY GA
900 PM EST FRI DEC 09 2022

NOTE: "FAIR" INDICATES FEW OR NO CLOUDS BELOW 12,000 FEET WITH NO
SIGNIFICANT WEATHER AND/OR OBSTRUCTIONS TO VISIBILITY.

* = USE WITH CAUTION. THE STATIONS MARKED WITH AN ASTERISK MAY NOT
REPORT WEATHER SUCH AS PRECIPITATION, FOG, OR THUNDER AND ARE NOT
QUALITY CONTROLLED BY NWS.

THE REMARK "TC" DENOTES TEMPERATURE READING IN DEGREES CELSIUS.

GAZ001>058-100300-
NORTH GEORGIA

CITY           SKY/WX    TMP DP  RH WIND       PRES   REMARKS
ATLANTA        CLOUDY    58  57  97 E10       30.13R
ATHENS         CLOUDY    53  51  93 E9        30.16S
CHAMBLEE       CLOUDY    56  55  97 VRB3      30.14R
PEACHTREE CITY CLOUDY    62  59  90 E3        30.12S
ROME           CLOUDY    60  58  92 S6        30.11R
WEST ATLANTA   CLOUDY    58  57  97 NE5       30.13S
GAINESVILLE    CLOUDY    53  51  93 E9        30.17S
CARTERSVILLE   CLOUDY    57  57 100 E6        30.14R


CITY           SKY/WX    TMP DP  RH WIND       PRES   REMARKS
DALTON*        CLOUDY    59  58  96 CALM      30.13R FOG
LAWRENCEVILLE* CLOUDY    55  54  96 E7        30.15R
KENNESAW*      CLOUDY    57  55  93 E7        30.14S
CANTON*        CLOUDY    54  53  98 SE6       30.16S
BLAIRSVILLE*   LGT RAIN  54  54  98 NE3       30.14S
$$

GAZ059>098-102>109-100300-
CENTRAL GEORGIA

CITY           SKY/WX    TMP DP  RH WIND       PRES   REMARKS
AUGUSTA-BUSH   RAIN      53  51  93 E5        30.17R
AUGUSTA-DANIEL LGT RAIN  53  51  93 E6        30.17S FOG
COLUMBUS       CLEAR     63  62  97 CALM      30.10R
MACON          MOCLDY    65  63  93 NE6       30.11R


CITY           SKY/WX    TMP DP  RH WIND       PRES   REMARKS
LAGRANGE*      CLOUDY    67  62  86 W3        30.10S
SYLVANIA*      RAIN      56  55  95 E3        30.17R
MILLEDGEVILLE* CLOUDY    57  55  94 E9        30.14R
$$

GAZ099>101-110>166-100300-
SOUTH GEORGIA

CITY           SKY/WX    TMP DP  RH WIND       PRES   REMARKS
SAVANNAH       FOG       59  57  93 E7        30.14S VSB 1
VALDOSTA       CLEAR     61  58  90 CALM      30.12R
ALMA           CLOUDY    67  61  81 CALM      30.11R
ST SIMONS      CLOUDY    67  61  81 NE6       30.13S
ALBANY         PTCLDY    64  60  87 CALM      30.13R
BRUNSWICK      CLOUDY    64  61  90 E6        30.13F


CITY           SKY/WX    TMP DP  RH WIND       PRES   REMARKS
BAINBRIDGE*    CLEAR     64  62  93 SW5       30.12S
MOULTRIE*      CLEAR     63  61  94 CALM      30.13S
VIDALIA*       CLOUDY    64  63  94 NE8       30.13R FOG
WAYCROSS*      CLEAR     65  64  96 SE7       30.12R
DOUGLAS*       CLOUDY    64  60  86 CALM      30.13R
$$



USA.gov is the U.S. government's official web portal to all federal, state and local government web resources and services.